This is the latest recevied weather packets stored in our database for station/object IT9RID. If no packets are shown the sender has not sent any weather packets the latest 10 day(s).
| Time | Temp. | Humidity | Pressure | Rain* | Wind** | Luminosity | Snow |
|---|---|---|---|---|---|---|---|
| 1777834423 | 15° C | 78% | 1020.2 hPa | 0 mm | - | - | - |
| 1777833823 | 15.56° C | 77% | 1020 hPa | 0 mm | - | - | - |
| 1777833223 | 15.56° C | 76% | 1019.9 hPa | 0 mm | - | - | - |
| 1777832623 | 16.11° C | 75% | 1019.7 hPa | 0 mm | - | - | - |
| 1777832023 | 16.11° C | 74% | 1019.7 hPa | 0 mm | - | - | - |
| 1777831422 | 16.67° C | 73% | 1019.6 hPa | 0 mm | - | - | - |
| 1777830822 | 17.22° C | 71% | 1019.5 hPa | 0 mm | - | - | - |
| 1777829022 | 17.22° C | 71% | 1019.6 hPa | 0 mm | - | - | - |
| 1777828421 | 17.78° C | 70% | 1019.4 hPa | 0 mm | - | - | - |
| 1777827821 | 17.78° C | 70% | 1019.4 hPa | 0 mm | - | - | - |
| 1777827222 | 17.78° C | 69% | 1019.4 hPa | 0 mm | - | - | - |
| 1777826621 | 18.33° C | 68% | 1019.3 hPa | 0 mm | - | - | - |
| 1777826021 | 18.33° C | 68% | 1019.4 hPa | 0 mm | - | - | - |
| 1777825421 | 18.33° C | 70% | 1019.3 hPa | 0 mm | - | - | - |
| 1777824821 | 18.33° C | 69% | 1019.4 hPa | 0 mm | - | - | - |
| 1777824220 | 18.33° C | 68% | 1019.7 hPa | 0 mm | - | - | - |
| 1777823622 | 18.33° C | 68% | 1019.6 hPa | 0 mm | - | - | - |
| 1777823020 | 18.89° C | 67% | 1019.7 hPa | 0 mm | - | - | - |
| 1777822420 | 18.89° C | 67% | 1019.8 hPa | 0 mm | - | - | - |
| 1777821820 | 18.33° C | 66% | 1019.8 hPa | 0 mm | - | - | - |
| 1777821220 | 18.89° C | 66% | 1019.8 hPa | 0 mm | - | - | - |
| 1777820619 | 18.89° C | 66% | 1019.8 hPa | 0 mm | - | - | - |
| 1777820020 | 18.89° C | 65% | 1019.7 hPa | 0 mm | - | - | - |
| 1777819419 | 18.33° C | 67% | 1019.7 hPa | 0 mm | - | - | - |
| 1777818819 | 18.33° C | 66% | 1019.8 hPa | 0 mm | - | - | - |
* Rain latest hour (hover to see other rain measurements)
** Current wind speed in m/s (hover to see current wind gust speed)